contact:dominique.lefevre@mio.osupytheas.fr, maurice.libes@osupytheas.fr, didier.mallarino@osupytheas.fr
Project:EMSO http://www.emso-fr.org/EMSO-France
Depth: 2436.0 m
Title:EMSO Ligure Ouest : Data MII capteur MICROCAT
DateTime_Computer,Latitude,Longitude,Temperature,Conductivity,Pressure,DateTime_Instrument
DateTime_Computer,Latitude,Longitude,degC,S m-1,dbar,DateTime_Instrument
2017-10-11T00:00:34Z,42.805,6.029,13.2942,4.59974,2472.055,2017-10-11T02:01:59Z
2017-10-11T00:02:09Z,42.805,6.029,13.2937,4.59963,2472.055,2017-10-11T02:03:33Z
2017-10-11T00:03:44Z,42.805,6.029,13.2938,4.59981,2472.1,2017-10-11T02:05:08Z
2017-10-11T00:05:19Z,42.805,6.029,13.2941,4.59972,2472.069,2017-10-11T02:06:43Z
2017-10-11T00:06:54Z,42.805,6.029,13.2940,4.59969,2472.069,2017-10-11T02:08:18Z
2017-10-11T00:08:28Z,42.805,6.029,13.2943,4.59961,2472.055,2017-10-11T02:09:53Z
2017-10-11T00:10:03Z,42.805,6.029,13.2943,4.59961,2472.069,2017-10-11T02:11:28Z
2017-10-11T00:11:38Z,42.805,6.029,13.2941,4.59959,2472.077,2017-10-11T02:13:02Z
2017-10-11T00:13:13Z,42.805,6.029,13.2946,4.59960,2472.032,2017-10-11T02:14:37Z
2017-10-11T00:14:48Z,42.805,6.029,13.2948,4.59961,2472.055,2017-10-11T02:16:12Z
2017-10-11T00:16:23Z,42.805,6.029,13.2934,4.59967,2472.092,2017-10-11T02:17:47Z
2017-10-11T00:17:57Z,42.805,6.029,13.2936,4.59962,2472.092,2017-10-11T02:19:22Z
2017-10-11T00:19:32Z,42.805,6.029,13.2936,4.59961,2472.032,2017-10-11T02:20:57Z
2017-10-11T00:21:07Z,42.805,6.029,13.2934,4.59968,2472.055,2017-10-11T02:22:31Z
2017-10-11T00:22:42Z,42.805,6.029,13.2939,4.59972,2472.092,2017-10-11T02:24:06Z
2017-10-11T00:24:17Z,42.805,6.029,13.2937,4.59961,2472.077,2017-10-11T02:25:41Z
2017-10-11T00:25:52Z,42.805,6.029,13.2942,4.59966,2472.069,2017-10-11T02:27:16Z
2017-10-11T00:27:26Z,42.805,6.029,13.2940,4.59964,2472.047,2017-10-11T02:28:51Z
2017-10-11T00:29:01Z,42.805,6.029,13.2936,4.59961,2472.047,2017-10-11T02:30:26Z
2017-10-11T00:30:36Z,42.805,6.029,13.2937,4.59961,2472.032,2017-10-11T02:32:00Z
2017-10-11T00:32:11Z,42.805,6.029,13.2947,4.59959,2472.069,2017-10-11T02:33:35Z
2017-10-11T00:33:46Z,42.805,6.029,13.2940,4.59961,2472.055,2017-10-11T02:35:10Z
2017-10-11T00:35:21Z,42.805,6.029,13.2937,4.59961,2472.055,2017-10-11T02:36:45Z
2017-10-11T00:36:55Z,42.805,6.029,13.2939,4.59978,2472.032,2017-10-11T02:38:20Z
2017-10-11T00:38:30Z,42.805,6.029,13.2939,4.59967,2472.069,2017-10-11T02:39:55Z
2017-10-11T00:40:05Z,42.805,6.029,13.2939,4.59970,2472.055,2017-10-11T02:41:29Z
2017-10-11T00:41:40Z,42.805,6.029,13.2938,4.59964,2472.055,2017-10-11T02:43:04Z
2017-10-11T00:43:15Z,42.805,6.029,13.2932,4.59961,2472.047,2017-10-11T02:44:39Z
2017-10-11T00:44:50Z,42.805,6.029,13.2933,4.59960,2472.055,2017-10-11T02:46:14Z
2017-10-11T00:46:24Z,42.805,6.029,13.2934,4.59961,2472.069,2017-10-11T02:47:49Z
2017-10-11T00:47:59Z,42.805,6.029,13.2933,4.59960,2472.077,2017-10-11T02:49:24Z
2017-10-11T00:49:34Z,42.805,6.029,13.2934,4.59961,2472.047,2017-10-11T02:50:58Z
2017-10-11T00:51:09Z,42.805,6.029,13.2933,4.59958,2472.055,2017-10-11T02:52:33Z
2017-10-11T00:52:44Z,42.805,6.029,13.2932,4.59961,2472.032,2017-10-11T02:54:08Z
2017-10-11T00:54:19Z,42.805,6.029,13.2933,4.59961,2472.055,2017-10-11T02:55:43Z
2017-10-11T00:55:54Z,42.805,6.029,13.2933,4.59960,2472.047,2017-10-11T02:57:18Z
2017-10-11T00:57:28Z,42.805,6.029,13.2945,4.59959,2472.069,2017-10-11T02:58:53Z
2017-10-11T00:59:03Z,42.805,6.029,13.2934,4.59965,2472.01,2017-10-11T03:00:27Z
2017-10-11T01:00:38Z,42.805,6.029,13.2936,4.59959,2472.032,2017-10-11T03:02:02Z
2017-10-11T01:02:13Z,42.805,6.029,13.2939,4.59968,2472.047,2017-10-11T03:03:37Z
2017-10-11T01:03:48Z,42.805,6.029,13.2940,4.59959,2472.047,2017-10-11T03:05:12Z
2017-10-11T01:05:23Z,42.805,6.029,13.2937,4.59960,2472.047,2017-10-11T03:06:47Z
2017-10-11T01:06:57Z,42.805,6.029,13.2933,4.59960,2472.032,2017-10-11T03:08:22Z
2017-10-11T01:08:32Z,42.805,6.029,13.2932,4.59959,2472.084,2017-10-11T03:09:56Z
2017-10-11T01:10:07Z,42.805,6.029,13.2933,4.59956,2472.047,2017-10-11T03:11:31Z
2017-10-11T01:11:42Z,42.805,6.029,13.2933,4.59957,2472.047,2017-10-11T03:13:06Z
2017-10-11T01:13:17Z,42.805,6.029,13.2933,4.59956,2472.024,2017-10-11T03:14:41Z
2017-10-11T01:14:52Z,42.805,6.029,13.2932,4.59956,2472.032,2017-10-11T03:16:16Z
2017-10-11T01:16:26Z,42.805,6.029,13.2928,4.59956,2472.092,2017-10-11T03:17:51Z
2017-10-11T01:18:01Z,42.805,6.029,13.2930,4.59961,2472.032,2017-10-11T03:19:25Z
2017-10-11T01:19:36Z,42.805,6.029,13.2934,4.59957,2472.069,2017-10-11T03:21:00Z
2017-10-11T01:21:11Z,42.805,6.029,13.2933,4.59959,2472.047,2017-10-11T03:22:35Z
2017-10-11T01:22:46Z,42.805,6.029,13.2935,4.59958,2472.024,2017-10-11T03:24:10Z
2017-10-11T01:24:21Z,42.805,6.029,13.2935,4.59958,2472.032,2017-10-11T03:25:45Z
2017-10-11T01:25:55Z,42.805,6.029,13.2935,4.59961,2472.047,2017-10-11T03:27:20Z
2017-10-11T01:27:30Z,42.805,6.029,13.2937,4.59962,2472.032,2017-10-11T03:28:54Z
2017-10-11T01:29:05Z,42.805,6.029,13.2936,4.59958,2472.01,2017-10-11T03:30:29Z
2017-10-11T01:30:40Z,42.805,6.029,13.2932,4.59958,2472.047,2017-10-11T03:32:04Z
2017-10-11T01:32:15Z,42.805,6.029,13.2933,4.59961,2472.069,2017-10-11T03:33:39Z
2017-10-11T01:33:50Z,42.805,6.029,13.2933,4.59957,2472.032,2017-10-11T03:35:14Z
2017-10-11T01:35:24Z,42.805,6.029,13.2933,4.59958,2472.047,2017-10-11T03:36:49Z
2017-10-11T01:36:59Z,42.805,6.029,13.2935,4.59958,2472.032,2017-10-11T03:38:24Z
2017-10-11T01:38:34Z,42.805,6.029,13.2936,4.59956,2472.032,2017-10-11T03:39:58Z
2017-10-11T01:40:09Z,42.805,6.029,13.2933,4.59958,2472.01,2017-10-11T03:41:33Z
2017-10-11T01:41:44Z,42.805,6.029,13.2933,4.59958,2472.032,2017-10-11T03:43:08Z
2017-10-11T01:43:19Z,42.805,6.029,13.2932,4.59960,2472.047,2017-10-11T03:44:43Z
2017-10-11T01:44:53Z,42.805,6.029,13.2937,4.59960,2472.024,2017-10-11T03:46:18Z
2017-10-11T01:46:28Z,42.805,6.029,13.2934,4.59958,2472.01,2017-10-11T03:47:53Z
2017-10-11T01:48:03Z,42.805,6.029,13.2932,4.59958,2472.01,2017-10-11T03:49:27Z
2017-10-11T01:49:38Z,42.805,6.029,13.2929,4.59957,2472.024,2017-10-11T03:51:02Z
2017-10-11T01:51:13Z,42.805,6.029,13.2935,4.59958,2472.01,2017-10-11T03:52:37Z
2017-10-11T01:52:48Z,42.805,6.029,13.2934,4.59964,2472.047,2017-10-11T03:54:12Z
2017-10-11T01:54:22Z,42.805,6.029,13.2932,4.59961,2472.01,2017-10-11T03:55:47Z
2017-10-11T01:55:57Z,42.805,6.029,13.2936,4.59960,2472.055,2017-10-11T03:57:22Z
2017-10-11T01:57:32Z,42.805,6.029,13.2930,4.59959,2472.002,2017-10-11T03:58:56Z
2017-10-11T01:59:07Z,42.805,6.029,13.2938,4.59957,2472.01,2017-10-11T04:00:31Z
2017-10-11T02:00:42Z,42.805,6.029,13.2937,4.59958,2472.032,2017-10-11T04:02:06Z
2017-10-11T02:02:17Z,42.805,6.029,13.2935,4.59959,2472.024,2017-10-11T04:03:41Z
2017-10-11T02:03:51Z,42.805,6.029,13.2934,4.59958,2472.047,2017-10-11T04:05:16Z
2017-10-11T02:05:26Z,42.805,6.029,13.2935,4.59957,2472.024,2017-10-11T04:06:51Z
2017-10-11T02:07:01Z,42.805,6.029,13.2932,4.59956,2472.002,2017-10-11T04:08:25Z
2017-10-11T02:08:36Z,42.805,6.029,13.2933,4.59957,2472.024,2017-10-11T04:10:00Z
2017-10-11T02:10:11Z,42.805,6.029,13.2933,4.59956,2472.024,2017-10-11T04:11:35Z
2017-10-11T02:11:46Z,42.805,6.029,13.2934,4.59957,2472.01,2017-10-11T04:13:10Z
2017-10-11T02:13:20Z,42.805,6.029,13.2935,4.59958,2472.01,2017-10-11T04:14:45Z
2017-10-11T02:14:55Z,42.805,6.029,13.2932,4.59959,2472.047,2017-10-11T04:16:20Z
2017-10-11T02:16:30Z,42.805,6.029,13.2933,4.59962,2472.002,2017-10-11T04:17:54Z
2017-10-11T02:18:05Z,42.805,6.029,13.2930,4.59959,2472.024,2017-10-11T04:19:29Z
2017-10-11T02:19:40Z,42.805,6.029,13.2932,4.59957,2471.987,2017-10-11T04:21:04Z
2017-10-11T02:21:15Z,42.805,6.029,13.2933,4.59958,2472.01,2017-10-11T04:22:39Z
2017-10-11T02:22:49Z,42.805,6.029,13.2932,4.59956,2471.964,2017-10-11T04:24:14Z
2017-10-11T02:24:24Z,42.805,6.029,13.2932,4.59956,2472.024,2017-10-11T04:25:49Z
2017-10-11T02:25:59Z,42.805,6.029,13.2932,4.59958,2472.01,2017-10-11T04:27:23Z
2017-10-11T02:27:34Z,42.805,6.029,13.2929,4.59957,2472.01,2017-10-11T04:28:58Z
2017-10-11T02:29:09Z,42.805,6.029,13.2933,4.59956,2472.024,2017-10-11T04:30:33Z
2017-10-11T02:30:44Z,42.805,6.029,13.2934,4.59956,2472.039,2017-10-11T04:32:08Z
2017-10-11T02:32:18Z,42.805,6.029,13.2932,4.59960,2472.032,2017-10-11T04:33:43Z
2017-10-11T02:33:53Z,42.805,6.029,13.2931,4.59958,2471.987,2017-10-11T04:35:18Z
2017-10-11T02:35:28Z,42.805,6.029,13.2933,4.59956,2472.01,2017-10-11T04:36:52Z
2017-10-11T02:37:03Z,42.805,6.029,13.2932,4.59959,2472.024,2017-10-11T04:38:27Z
2017-10-11T02:38:38Z,42.805,6.029,13.2933,4.59959,2472.01,2017-10-11T04:40:02Z
2017-10-11T02:40:13Z,42.805,6.029,13.2933,4.59957,2472.01,2017-10-11T04:41:37Z
2017-10-11T02:41:48Z,42.805,6.029,13.2930,4.59958,2472.01,2017-10-11T04:43:12Z
2017-10-11T02:43:22Z,42.805,6.029,13.2934,4.59958,2472.002,2017-10-11T04:44:47Z
2017-10-11T02:44:57Z,42.805,6.029,13.2932,4.59958,2472.002,2017-10-11T04:46:21Z
2017-10-11T02:46:32Z,42.805,6.029,13.2936,4.59958,2471.987,2017-10-11T04:47:56Z
2017-10-11T02:48:07Z,42.805,6.029,13.2934,4.59958,2471.979,2017-10-11T04:49:31Z
2017-10-11T02:49:42Z,42.805,6.029,13.2938,4.59958,2472.002,2017-10-11T04:51:06Z
2017-10-11T02:51:17Z,42.805,6.029,13.2938,4.59958,2472.002,2017-10-11T04:52:41Z
2017-10-11T02:52:51Z,42.805,6.029,13.2932,4.59957,2472.01,2017-10-11T04:54:16Z
2017-10-11T02:54:26Z,42.805,6.029,13.2933,4.59958,2471.964,2017-10-11T04:55:50Z
2017-10-11T02:56:01Z,42.805,6.029,13.2933,4.59957,2471.964,2017-10-11T04:57:25Z
2017-10-11T02:57:36Z,42.805,6.029,13.2934,4.59957,2472.01,2017-10-11T04:59:00Z
2017-10-11T02:59:11Z,42.805,6.029,13.2931,4.59958,2471.964,2017-10-11T05:00:35Z
2017-10-11T03:00:46Z,42.805,6.029,13.2932,4.59958,2472.01,2017-10-11T05:02:10Z
2017-10-11T03:02:20Z,42.805,6.029,13.2935,4.59957,2472.039,2017-10-11T05:03:45Z
2017-10-11T03:03:55Z,42.805,6.029,13.2933,4.59956,2472.002,2017-10-11T05:05:19Z
2017-10-11T03:05:30Z,42.805,6.029,13.2933,4.59957,2471.979,2017-10-11T05:06:54Z
2017-10-11T03:07:05Z,42.805,6.029,13.2935,4.59961,2472.002,2017-10-11T05:08:29Z
2017-10-11T03:08:40Z,42.805,6.029,13.2928,4.59956,2471.979,2017-10-11T05:10:04Z
2017-10-11T03:10:15Z,42.805,6.029,13.2933,4.59955,2472.002,2017-10-11T05:11:39Z
2017-10-11T03:11:49Z,42.805,6.029,13.2935,4.59956,2471.987,2017-10-11T05:13:14Z
2017-10-11T03:13:24Z,42.805,6.029,13.2934,4.59955,2471.979,2017-10-11T05:14:48Z
2017-10-11T03:14:59Z,42.805,6.029,13.2934,4.59957,2471.987,2017-10-11T05:16:23Z
2017-10-11T03:16:34Z,42.805,6.029,13.2935,4.59959,2472.002,2017-10-11T05:17:58Z
2017-10-11T03:18:09Z,42.805,6.029,13.2927,4.59956,2472.002,2017-10-11T05:19:33Z
2017-10-11T03:19:44Z,42.805,6.029,13.2930,4.59956,2471.979,2017-10-11T05:21:08Z
2017-10-11T03:21:18Z,42.805,6.029,13.2931,4.59957,2472.002,2017-10-11T05:22:43Z
2017-10-11T03:22:53Z,42.805,6.029,13.2933,4.59961,2471.964,2017-10-11T05:24:18Z
2017-10-11T03:24:28Z,42.805,6.029,13.2935,4.59958,2471.964,2017-10-11T05:25:52Z
2017-10-11T03:26:03Z,42.805,6.029,13.2936,4.59956,2472.002,2017-10-11T05:27:27Z
2017-10-11T03:27:38Z,42.805,6.029,13.2932,4.59961,2472.002,2017-10-11T05:29:02Z
2017-10-11T03:29:13Z,42.805,6.029,13.2930,4.59960,2472.002,2017-10-11T05:30:37Z
2017-10-11T03:30:47Z,42.805,6.029,13.2937,4.59958,2471.987,2017-10-11T05:32:12Z
2017-10-11T03:32:22Z,42.805,6.029,13.2933,4.59957,2471.987,2017-10-11T05:33:47Z
2017-10-11T03:33:57Z,42.805,6.029,13.2932,4.59956,2472.002,2017-10-11T05:35:21Z
2017-10-11T03:35:32Z,42.805,6.029,13.2937,4.59957,2471.979,2017-10-11T05:36:56Z
2017-10-11T03:37:07Z,42.805,6.029,13.2935,4.59956,2471.987,2017-10-11T05:38:31Z
2017-10-11T03:38:42Z,42.805,6.029,13.2935,4.59958,2471.964,2017-10-11T05:40:06Z
2017-10-11T03:40:16Z,42.805,6.029,13.2938,4.59958,2471.964,2017-10-11T05:41:41Z
2017-10-11T03:41:51Z,42.805,6.029,13.2933,4.59958,2471.987,2017-10-11T05:43:16Z
2017-10-11T03:43:26Z,42.805,6.029,13.2938,4.59958,2472.002,2017-10-11T05:44:50Z
2017-10-11T03:45:01Z,42.805,6.029,13.2934,4.59959,2471.979,2017-10-11T05:46:25Z
2017-10-11T03:46:36Z,42.805,6.029,13.2934,4.59958,2472.002,2017-10-11T05:48:00Z
2017-10-11T03:48:11Z,42.805,6.029,13.2931,4.59957,2471.964,2017-10-11T05:49:35Z
2017-10-11T03:49:45Z,42.805,6.029,13.2932,4.59957,2471.964,2017-10-11T05:51:10Z
2017-10-11T03:51:20Z,42.805,6.029,13.2934,4.59957,2471.979,2017-10-11T05:52:45Z
2017-10-11T03:52:55Z,42.805,6.029,13.2934,4.59956,2472.002,2017-10-11T05:54:19Z
2017-10-11T03:54:30Z,42.805,6.029,13.2932,4.59959,2471.979,2017-10-11T05:55:54Z
2017-10-11T03:56:05Z,42.805,6.029,13.2933,4.59960,2471.964,2017-10-11T05:57:29Z
2017-10-11T03:57:40Z,42.805,6.029,13.2931,4.59961,2471.987,2017-10-11T05:59:04Z
2017-10-11T03:59:14Z,42.805,6.029,13.2935,4.59958,2471.957,2017-10-11T06:00:39Z
2017-10-11T04:00:49Z,42.805,6.029,13.2928,4.59961,2471.987,2017-10-11T06:02:14Z
2017-10-11T04:02:24Z,42.805,6.029,13.2934,4.59961,2471.979,2017-10-11T06:03:48Z
2017-10-11T04:03:59Z,42.805,6.029,13.2928,4.59960,2471.964,2017-10-11T06:05:23Z
2017-10-11T04:05:34Z,42.805,6.029,13.2932,4.59958,2472.002,2017-10-11T06:06:58Z
2017-10-11T04:07:09Z,42.805,6.029,13.2933,4.59958,2471.979,2017-10-11T06:08:33Z
2017-10-11T04:08:43Z,42.805,6.029,13.2931,4.59958,2471.964,2017-10-11T06:10:08Z
2017-10-11T04:10:18Z,42.805,6.029,13.2934,4.59958,2471.979,2017-10-11T06:11:43Z
2017-10-11T04:11:53Z,42.805,6.029,13.2932,4.59960,2471.957,2017-10-11T06:13:17Z
2017-10-11T04:13:28Z,42.805,6.029,13.2934,4.59958,2471.987,2017-10-11T06:14:52Z
2017-10-11T04:15:03Z,42.805,6.029,13.2932,4.59958,2471.964,2017-10-11T06:16:27Z
2017-10-11T04:16:38Z,42.805,6.029,13.2930,4.59964,2471.979,2017-10-11T06:18:02Z
2017-10-11T04:18:12Z,42.805,6.029,13.2930,4.59958,2471.942,2017-10-11T06:19:37Z
2017-10-11T04:19:47Z,42.805,6.029,13.2935,4.59959,2471.942,2017-10-11T06:21:12Z
2017-10-11T04:21:22Z,42.805,6.029,13.2935,4.59956,2471.979,2017-10-11T06:22:46Z
2017-10-11T04:22:57Z,42.805,6.029,13.2933,4.59957,2471.957,2017-10-11T06:24:21Z
2017-10-11T04:24:32Z,42.805,6.029,13.2934,4.59959,2472.016,2017-10-11T06:25:56Z
2017-10-11T04:26:07Z,42.805,6.029,13.2935,4.59958,2471.942,2017-10-11T06:27:31Z
2017-10-11T04:27:42Z,42.805,6.029,13.2934,4.59960,2471.964,2017-10-11T06:29:06Z
2017-10-11T04:29:16Z,42.805,6.029,13.2929,4.59960,2471.957,2017-10-11T06:30:41Z
2017-10-11T04:30:51Z,42.805,6.029,13.2931,4.59960,2471.964,2017-10-11T06:32:15Z
2017-10-11T04:32:26Z,42.805,6.029,13.2933,4.59959,2471.964,2017-10-11T06:33:50Z
2017-10-11T04:34:01Z,42.805,6.029,13.2930,4.59958,2471.957,2017-10-11T06:35:25Z
2017-10-11T04:35:36Z,42.805,6.029,13.2931,4.59958,2471.957,2017-10-11T06:37:00Z
2017-10-11T04:37:11Z,42.805,6.029,13.2936,4.59958,2471.942,2017-10-11T06:38:35Z
2017-10-11T04:38:45Z,42.805,6.029,13.2932,4.59957,2471.979,2017-10-11T06:40:10Z
2017-10-11T04:40:20Z,42.805,6.029,13.2930,4.59958,2471.979,2017-10-11T06:41:44Z
2017-10-11T04:41:55Z,42.805,6.029,13.2933,4.59962,2471.957,2017-10-11T06:43:19Z
2017-10-11T04:43:30Z,42.805,6.029,13.2931,4.59959,2471.957,2017-10-11T06:44:54Z
2017-10-11T04:45:05Z,42.805,6.029,13.2933,4.59959,2471.979,2017-10-11T06:46:29Z
2017-10-11T04:46:40Z,42.805,6.029,13.2928,4.59958,2471.979,2017-10-11T06:48:04Z
2017-10-11T04:48:14Z,42.805,6.029,13.2935,4.59963,2472.002,2017-10-11T06:49:39Z
2017-10-11T04:49:49Z,42.805,6.029,13.2934,4.59961,2471.957,2017-10-11T06:51:13Z
2017-10-11T04:51:24Z,42.805,6.029,13.2932,4.59958,2471.964,2017-10-11T06:52:48Z
2017-10-11T04:52:59Z,42.805,6.029,13.2933,4.59960,2471.957,2017-10-11T06:54:23Z
2017-10-11T04:54:34Z,42.805,6.029,13.2932,4.59963,2471.979,2017-10-11T06:55:58Z
2017-10-11T04:56:09Z,42.805,6.029,13.2932,4.59962,2471.979,2017-10-11T06:57:33Z
2017-10-11T04:57:43Z,42.805,6.029,13.2932,4.59961,2471.957,2017-10-11T06:59:08Z
2017-10-11T04:59:18Z,42.805,6.029,13.2932,4.59961,2471.957,2017-10-11T07:00:43Z
2017-10-11T05:00:53Z,42.805,6.029,13.2933,4.59963,2471.979,2017-10-11T07:02:17Z
2017-10-11T05:02:28Z,42.805,6.029,13.2932,4.59961,2471.919,2017-10-11T07:03:52Z
2017-10-11T05:04:03Z,42.805,6.029,13.2934,4.59961,2471.957,2017-10-11T07:05:27Z
2017-10-11T05:05:38Z,42.805,6.029,13.2930,4.59960,2471.942,2017-10-11T07:07:02Z
2017-10-11T05:07:12Z,42.805,6.029,13.2931,4.59959,2471.979,2017-10-11T07:08:37Z
2017-10-11T05:08:47Z,42.805,6.029,13.2933,4.59960,2471.979,2017-10-11T07:10:12Z
2017-10-11T05:10:22Z,42.805,6.029,13.2936,4.59959,2471.934,2017-10-11T07:11:46Z
2017-10-11T05:11:57Z,42.805,6.029,13.2932,4.59958,2471.979,2017-10-11T07:13:21Z
2017-10-11T05:13:32Z,42.805,6.029,13.2935,4.59958,2471.957,2017-10-11T07:14:56Z
2017-10-11T05:15:07Z,42.805,6.029,13.2934,4.59961,2471.942,2017-10-11T07:16:31Z
2017-10-11T05:16:41Z,42.805,6.029,13.2931,4.59960,2471.957,2017-10-11T07:18:06Z
2017-10-11T05:18:16Z,42.805,6.029,13.2934,4.59961,2471.979,2017-10-11T07:19:41Z
2017-10-11T05:19:51Z,42.805,6.029,13.2931,4.59961,2471.957,2017-10-11T07:21:15Z
2017-10-11T05:21:26Z,42.805,6.029,13.2933,4.59961,2471.964,2017-10-11T07:22:50Z
2017-10-11T05:23:01Z,42.805,6.029,13.2935,4.59961,2471.919,2017-10-11T07:24:25Z
2017-10-11T05:24:36Z,42.805,6.029,13.2932,4.59962,2471.964,2017-10-11T07:26:00Z
2017-10-11T05:26:10Z,42.805,6.029,13.2928,4.59961,2471.979,2017-10-11T07:27:35Z
2017-10-11T05:27:45Z,42.805,6.029,13.2932,4.59961,2472.002,2017-10-11T07:29:10Z
2017-10-11T05:29:20Z,42.805,6.029,13.2932,4.59959,2472.002,2017-10-11T07:30:44Z
2017-10-11T05:30:55Z,42.805,6.029,13.2932,4.59963,2471.979,2017-10-11T07:32:19Z
2017-10-11T05:32:30Z,42.805,6.029,13.2933,4.59960,2471.964,2017-10-11T07:33:54Z
2017-10-11T05:34:05Z,42.805,6.029,13.2933,4.59959,2471.979,2017-10-11T07:35:29Z
2017-10-11T05:35:39Z,42.805,6.029,13.2933,4.59961,2471.957,2017-10-11T07:37:04Z
2017-10-11T05:37:14Z,42.805,6.029,13.2928,4.59960,2471.957,2017-10-11T07:38:39Z
2017-10-11T05:38:49Z,42.805,6.029,13.2935,4.59959,2471.957,2017-10-11T07:40:13Z
2017-10-11T05:40:24Z,42.805,6.029,13.2934,4.59958,2471.964,2017-10-11T07:41:48Z
2017-10-11T05:41:59Z,42.805,6.029,13.2931,4.59961,2472.002,2017-10-11T07:43:23Z
2017-10-11T05:43:34Z,42.805,6.029,13.2933,4.59959,2471.979,2017-10-11T07:44:58Z
2017-10-11T05:45:08Z,42.805,6.029,13.2932,4.59960,2471.957,2017-10-11T07:46:33Z
2017-10-11T05:46:43Z,42.805,6.029,13.2933,4.59963,2471.942,2017-10-11T07:48:08Z
2017-10-11T05:48:18Z,42.805,6.029,13.2932,4.59962,2471.957,2017-10-11T07:49:42Z
2017-10-11T05:49:53Z,42.805,6.029,13.2932,4.59961,2471.957,2017-10-11T07:51:17Z
2017-10-11T05:51:28Z,42.805,6.029,13.2932,4.59964,2471.979,2017-10-11T07:52:52Z
2017-10-11T05:53:03Z,42.805,6.029,13.2933,4.59966,2471.964,2017-10-11T07:54:27Z
2017-10-11T05:54:38Z,42.805,6.029,13.2933,4.59963,2471.942,2017-10-11T07:56:02Z
2017-10-11T05:56:12Z,42.805,6.029,13.2936,4.59967,2472.002,2017-10-11T07:57:37Z
2017-10-11T05:57:47Z,42.805,6.029,13.2934,4.59962,2471.942,2017-10-11T07:59:11Z
2017-10-11T05:59:22Z,42.805,6.029,13.2933,4.59961,2471.942,2017-10-11T08:00:46Z
2017-10-11T06:00:57Z,42.805,6.029,13.2933,4.59961,2471.979,2017-10-11T08:02:21Z
2017-10-11T06:02:32Z,42.805,6.029,13.2931,4.59963,2471.942,2017-10-11T08:03:56Z
2017-10-11T06:04:07Z,42.805,6.029,13.2935,4.59961,2471.942,2017-10-11T08:05:31Z
2017-10-11T06:05:41Z,42.805,6.029,13.2935,4.59961,2471.942,2017-10-11T08:07:06Z
2017-10-11T06:07:16Z,42.805,6.029,13.2932,4.59963,2471.979,2017-10-11T08:08:40Z
2017-10-11T06:08:51Z,42.805,6.029,13.2935,4.59960,2471.987,2017-10-11T08:10:15Z
2017-10-11T06:10:26Z,42.805,6.029,13.2933,4.59963,2471.979,2017-10-11T08:11:50Z
2017-10-11T06:12:01Z,42.805,6.029,13.2935,4.59963,2471.964,2017-10-11T08:13:25Z
2017-10-11T06:13:36Z,42.805,6.029,13.2935,4.59961,2472.002,2017-10-11T08:15:00Z
2017-10-11T06:15:10Z,42.805,6.029,13.2942,4.59964,2471.964,2017-10-11T08:16:35Z
2017-10-11T06:16:45Z,42.805,6.029,13.2934,4.59961,2471.979,2017-10-11T08:18:09Z
2017-10-11T06:18:20Z,42.805,6.029,13.2943,4.59981,2471.979,2017-10-11T08:19:44Z
2017-10-11T06:19:55Z,42.805,6.029,13.2933,4.59969,2471.957,2017-10-11T08:21:19Z
2017-10-11T06:21:30Z,42.805,6.029,13.2943,4.59966,2471.979,2017-10-11T08:22:54Z
2017-10-11T06:23:05Z,42.805,6.029,13.2929,4.59961,2471.964,2017-10-11T08:24:29Z
2017-10-11T06:24:39Z,42.805,6.029,13.2933,4.59961,2471.957,2017-10-11T08:26:04Z
2017-10-11T06:26:14Z,42.805,6.029,13.2932,4.59960,2471.964,2017-10-11T08:27:39Z
2017-10-11T06:27:49Z,42.805,6.029,13.2935,4.59960,2471.979,2017-10-11T08:29:13Z
2017-10-11T06:29:24Z,42.805,6.029,13.2932,4.59959,2471.964,2017-10-11T08:30:48Z
2017-10-11T06:30:59Z,42.805,6.029,13.2934,4.59960,2471.987,2017-10-11T08:32:23Z
2017-10-11T06:32:34Z,42.805,6.029,13.2932,4.59960,2471.979,2017-10-11T08:33:58Z
2017-10-11T06:34:08Z,42.805,6.029,13.2933,4.59960,2471.979,2017-10-11T08:35:33Z
2017-10-11T06:35:43Z,42.805,6.029,13.2932,4.59961,2472.01,2017-10-11T08:37:08Z
2017-10-11T06:37:18Z,42.805,6.029,13.2933,4.59964,2472.002,2017-10-11T08:38:42Z
2017-10-11T06:38:53Z,42.805,6.029,13.2934,4.59964,2472.002,2017-10-11T08:40:17Z
2017-10-11T06:40:28Z,42.805,6.029,13.2932,4.59962,2471.987,2017-10-11T08:41:52Z
2017-10-11T06:42:03Z,42.805,6.029,13.2930,4.59961,2471.987,2017-10-11T08:43:27Z
2017-10-11T06:43:37Z,42.805,6.029,13.2935,4.59964,2471.987,2017-10-11T08:45:02Z
2017-10-11T06:45:12Z,42.805,6.029,13.2936,4.59964,2471.979,2017-10-11T08:46:37Z
2017-10-11T06:46:47Z,42.805,6.029,13.2934,4.59962,2471.987,2017-10-11T08:48:11Z
2017-10-11T06:48:22Z,42.805,6.029,13.2934,4.59964,2471.979,2017-10-11T08:49:46Z
2017-10-11T06:49:57Z,42.805,6.029,13.2932,4.59964,2471.964,2017-10-11T08:51:21Z
2017-10-11T06:51:32Z,42.805,6.029,13.2931,4.59962,2471.979,2017-10-11T08:52:56Z
2017-10-11T06:53:06Z,42.805,6.029,13.2933,4.59962,2472.002,2017-10-11T08:54:31Z
2017-10-11T06:54:41Z,42.805,6.029,13.2936,4.59963,2471.987,2017-10-11T08:56:06Z
2017-10-11T06:56:16Z,42.805,6.029,13.2932,4.59960,2471.964,2017-10-11T08:57:40Z
2017-10-11T06:57:51Z,42.805,6.029,13.2932,4.59964,2472.002,2017-10-11T08:59:15Z
2017-10-11T06:59:26Z,42.805,6.029,13.2936,4.59961,2471.987,2017-10-11T09:00:50Z
2017-10-11T07:01:01Z,42.805,6.029,13.2932,4.59961,2471.964,2017-10-11T09:02:25Z
2017-10-11T07:02:35Z,42.805,6.029,13.2933,4.59962,2471.987,2017-10-11T09:04:00Z
2017-10-11T07:04:10Z,42.805,6.029,13.2929,4.59961,2471.964,2017-10-11T09:05:35Z
2017-10-11T07:05:45Z,42.805,6.029,13.2934,4.59960,2472.024,2017-10-11T09:07:09Z
2017-10-11T07:07:20Z,42.805,6.029,13.2933,4.59961,2471.987,2017-10-11T09:08:44Z
2017-10-11T07:08:55Z,42.805,6.029,13.2933,4.59961,2471.979,2017-10-11T09:10:19Z
2017-10-11T07:10:30Z,42.805,6.029,13.2935,4.59960,2472.002,2017-10-11T09:11:54Z
2017-10-11T07:12:04Z,42.805,6.029,13.2934,4.59965,2472.002,2017-10-11T09:13:29Z
2017-10-11T07:13:39Z,42.805,6.029,13.2933,4.59961,2472.002,2017-10-11T09:15:04Z
2017-10-11T07:15:14Z,42.805,6.029,13.2936,4.59962,2471.987,2017-10-11T09:16:38Z
2017-10-11T07:16:49Z,42.805,6.029,13.2933,4.59962,2471.987,2017-10-11T09:18:13Z
2017-10-11T07:18:24Z,42.805,6.029,13.2934,4.59962,2472.002,2017-10-11T09:19:48Z
2017-10-11T07:19:59Z,42.805,6.029,13.2933,4.59960,2472.01,2017-10-11T09:21:23Z
2017-10-11T07:21:33Z,42.805,6.029,13.2929,4.59961,2472.024,2017-10-11T09:22:58Z
2017-10-11T07:23:08Z,42.805,6.029,13.2940,4.59962,2472.032,2017-10-11T09:24:33Z
2017-10-11T07:24:43Z,42.805,6.029,13.2933,4.59958,2472.002,2017-10-11T09:26:07Z
2017-10-11T07:26:18Z,42.805,6.029,13.2932,4.59960,2472.002,2017-10-11T09:27:42Z
2017-10-11T07:27:53Z,42.805,6.029,13.2932,4.59958,2472.024,2017-10-11T09:29:17Z
2017-10-11T07:29:28Z,42.805,6.029,13.2933,4.59961,2472.024,2017-10-11T09:30:52Z
2017-10-11T07:31:03Z,42.805,6.029,13.2932,4.59960,2472.032,2017-10-11T09:32:27Z
2017-10-11T07:32:37Z,42.805,6.029,13.2931,4.59961,2472.002,2017-10-11T09:34:02Z
2017-10-11T07:34:12Z,42.805,6.029,13.2935,4.59961,2472.024,2017-10-11T09:35:36Z
2017-10-11T07:35:47Z,42.805,6.029,13.2940,4.59961,2472.032,2017-10-11T09:37:11Z
2017-10-11T07:37:22Z,42.805,6.029,13.2935,4.59961,2472.032,2017-10-11T09:38:46Z
2017-10-11T07:38:57Z,42.805,6.029,13.2939,4.59964,2471.987,2017-10-11T09:40:21Z
2017-10-11T07:40:32Z,42.805,6.029,13.2943,4.59970,2472.024,2017-10-11T09:41:56Z
2017-10-11T07:42:06Z,42.805,6.029,13.2954,4.59980,2472.01,2017-10-11T09:43:31Z
2017-10-11T07:43:41Z,42.805,6.029,13.2970,4.59978,2472.01,2017-10-11T09:45:06Z
2017-10-11T07:45:16Z,42.805,6.029,13.2945,4.59976,2472.055,2017-10-11T09:46:40Z